TimePDT,TemperatureF,Dew PointF,Humidity,Sea Level PressureIn,VisibilityMPH,Wind Direction,Wind SpeedMPH,Gust SpeedMPH,PrecipitationIn,Events,Conditions,WindDirDegrees,DateUTC
12:15 AM,50.0,44.6,82,30.06,10.0,Calm,Calm,-,N/A,,Clear,0,2013-09-15 07:15:00
12:35 AM,50.0,44.6,82,30.06,10.0,Calm,Calm,-,N/A,,Clear,0,2013-09-15 07:35:00
12:55 AM,46.4,44.6,93,30.05,10.0,Calm,Calm,-,N/A,,Clear,0,2013-09-15 07:55:00
1:15 AM,46.4,42.8,87,30.05,10.0,Calm,Calm,-,N/A,,Clear,0,2013-09-15 08:15:00
1:35 AM,44.6,41.0,87,30.05,10.0,SSE,3.5,-,N/A,,Scattered Clouds,160,2013-09-15 08:35:00
1:55 AM,44.6,42.8,93,30.05,10.0,West,3.5,-,N/A,,Partly Cloudy,260,2013-09-15 08:55:00
2:15 AM,46.4,44.6,93,30.06,10.0,Calm,Calm,-,N/A,,Clear,0,2013-09-15 09:15:00
2:35 AM,46.4,42.8,87,30.05,10.0,Calm,Calm,-,N/A,,Clear,0,2013-09-15 09:35:00
2:55 AM,44.6,41.0,87,30.05,10.0,Calm,Calm,-,N/A,,Partly Cloudy,0,2013-09-15 09:55:00
3:15 AM,44.6,42.8,93,30.05,10.0,Calm,Calm,-,N/A,,Scattered Clouds,0,2013-09-15 10:15:00
3:35 AM,44.6,44.6,100,30.05,10.0,Calm,Calm,-,N/A,,Mostly Cloudy,0,2013-09-15 10:35:00
3:55 AM,44.6,42.8,93,30.05,10.0,Calm,Calm,-,N/A,,Mostly Cloudy,0,2013-09-15 10:55:00
4:15 AM,44.6,42.8,93,30.05,10.0,Calm,Calm,-,N/A,,Partly Cloudy,0,2013-09-15 11:15:00
4:35 AM,44.6,42.8,93,30.05,10.0,Calm,Calm,-,N/A,,Clear,0,2013-09-15 11:35:00
4:55 AM,42.8,41.0,93,30.06,4.0,Calm,Calm,-,N/A,,Clear,0,2013-09-15 11:55:00
5:15 AM,41.0,41.0,100,30.05,0.5,Calm,Calm,-,N/A,Fog,Fog,0,2013-09-15 12:15:00
5:35 AM,41.0,41.0,100,30.05,2.5,Calm,Calm,-,N/A,,Partly Cloudy,0,2013-09-15 12:35:00
5:55 AM,42.8,42.8,100,30.05,10.0,Calm,Calm,-,N/A,,Clear,0,2013-09-15 12:55:00
6:15 AM,41.0,41.0,100,30.05,6.0,Calm,Calm,-,N/A,,Clear,0,2013-09-15 13:15:00
6:35 AM,37.4,37.4,100,30.05,0.2,SSE,3.5,-,N/A,Fog,Fog,150,2013-09-15 13:35:00
6:55 AM,39.2,39.2,100,30.05,7.0,Calm,Calm,-,N/A,Fog,Shallow Fog,0,2013-09-15 13:55:00
7:45 AM,42.8,41.0,93,30.06,10.0,Calm,Calm,-,N/A,,Partly Cloudy,0,2013-09-15 14:45:00
8:50 AM,51.8,44.6,76,30.06,10.0,Calm,Calm,-,N/A,,Partly Cloudy,0,2013-09-15 15:50:00
9:45 AM,62.6,46.4,55,30.06,10.0,Calm,Calm,-,N/A,,Clear,0,2013-09-15 16:45:00
10:45 AM,73.4,33.8,23,30.06,10.0,SSW,13.8,28.8,N/A,,Partly Cloudy,200,2013-09-15 17:45:00
11:50 AM,75.2,30.2,19,30.06,10.0,South,19.6,31.1,N/A,,Partly Cloudy,190,2013-09-15 18:50:00
12:55 PM,75.2,32.0,21,30.06,10.0,SW,18.4,29.9,N/A,,Partly Cloudy,220,2013-09-15 19:55:00
1:55 PM,77.0,32.0,19,30.05,10.0,SW,23.0,38.0,N/A,,Partly Cloudy,230,2013-09-15 20:55:00
2:50 PM,75.2,32.0,21,30.04,10.0,SW,24.2,39.1,N/A,,Partly Cloudy,220,2013-09-15 21:50:00
3:45 PM,75.2,35.6,24,30.04,10.0,SW,13.8,32.2,N/A,,Partly Cloudy,220,2013-09-15 22:45:00
4:45 PM,73.4,35.6,25,30.04,10.0,WSW,20.7,28.8,N/A,,Partly Cloudy,240,2013-09-15 23:45:00
5:50 PM,69.8,35.6,28,30.05,10.0,SW,17.3,23.0,N/A,,Clear,230,2013-09-16 00:50:00
5:55 PM,69.8,35.6,28,30.05,10.0,SW,13.8,23.0,N/A,,Clear,230,2013-09-16 00:55:00
6:15 PM,68.0,35.6,30,30.05,10.0,SW,10.4,20.7,N/A,,Clear,220,2013-09-16 01:15:00
6:35 PM,68.0,35.6,30,30.05,10.0,WSW,13.8,18.4,N/A,,Clear,240,2013-09-16 01:35:00
6:55 PM,66.2,33.8,30,30.06,10.0,SW,8.1,19.6,N/A,,Clear,220,2013-09-16 01:55:00
7:15 PM,64.4,32.0,30,30.06,10.0,SW,10.4,17.3,N/A,,Clear,220,2013-09-16 02:15:00
7:35 PM,62.6,32.0,32,30.06,10.0,SSW,8.1,-,N/A,,Clear,200,2013-09-16 02:35:00
7:55 PM,62.6,32.0,32,30.06,10.0,SSW,8.1,-,N/A,,Clear,210,2013-09-16 02:55:00
8:15 PM,60.8,32.0,34,30.06,10.0,SSW,6.9,-,N/A,,Clear,200,2013-09-16 03:15:00
8:35 PM,59.0,32.0,36,30.07,10.0,WSW,5.8,-,N/A,,Clear,240,2013-09-16 03:35:00
8:55 PM,59.0,32.0,36,30.07,10.0,SW,4.6,-,N/A,,Clear,230,2013-09-16 03:55:00
9:15 PM,59.0,32.0,36,30.07,10.0,Calm,Calm,-,N/A,,Clear,0,2013-09-16 04:15:00
9:35 PM,57.2,32.0,38,30.08,10.0,WNW,4.6,-,N/A,,Clear,300,2013-09-16 04:35:00
9:55 PM,57.2,33.8,41,30.08,10.0,West,5.8,-,N/A,,Clear,270,2013-09-16 04:55:00
10:15 PM,57.2,33.8,41,30.08,10.0,West,5.8,-,N/A,,Clear,270,2013-09-16 05:15:00
10:35 PM,57.2,33.8,41,30.08,10.0,Calm,Calm,-,N/A,,Clear,0,2013-09-16 05:35:00
10:55 PM,57.2,33.8,41,30.08,10.0,West,3.5,-,N/A,,Clear,280,2013-09-16 05:55:00
11:15 PM,55.4,35.6,47,30.09,10.0,West,3.5,-,N/A,,Clear,260,2013-09-16 06:15:00
11:35 PM,51.8,35.6,54,30.09,10.0,SW,3.5,-,N/A,,Clear,220,2013-09-16 06:35:00
11:55 PM,50.0,33.8,54,30.09,10.0,Calm,Calm,-,N/A,,Clear,0,2013-09-16 06:55:00